Cloud_Cover
0 0 0 0 0 88 1 0 0 0 0 0 0 0 0 0 0 0 7 88 96 100 27 54 6 90 76 14 34 5 5 63 38 0 0 0 0 0 0 0 0 0 0 0 0 0 0 0 0
0 0 0 0 0 0 0 0 0 0 0 0 0 0 0 0 0 4 59 99 100 100 93 5 74 37 100 98 100 47 10 95 4 4 0 0 0 0 0 0 0 0 0 0 0 0 0 0 0
0 0 0 0 4 0 0 0 0 0 0 0 0 0 0 0 0 0 44 41 100 100 100 65 98 100 100 100 100 96 11 13 5 5 5 0 0 0 0 0 0 0 0 0 0 0 0 0 0
0 0 0 0 0 0 0 0 0 0 0 0 0 0 0 0 0 0 33 42 87 93 69 100 100 100 100 100 100 95 24 5 5 5 5 5 1 0 0 0 0 0 0 0 0 0 0 0 0
0 0 0 0 0 0 0 0 0 0 0 0 0 0 0 1 3 6 72 58 9 80 21 100 100 100 100 100 100 100 18 5 5 5 5 5 4 0 0 0 0 0 0 0 0 0 0 0 0
0 0 0 0 0 0 0 0 0 0 0 0 0 0 0 18 82 89 95 81 0 76 65 85 100 100 100 100 100 77 56 22 17 6 5 5 5 4 0 0 0 0 0 0 0 0 0 0 0
0 0 0 0 0 0 0 0 0 0 0 0 0 0 0 24 97 100 100 60 1 23 99 43 89 100 100 100 100 100 100 88 80 5 0 3 5 0 0 0 0 0 0 0 0 0 0 0 0
0 0 31 3 0 0 0 0 0 0 0 0 0 0 0 0 38 100 100 18 14 89 100 97 87 98 100 100 88 100 100 95 29 5 0 6 38 2 0 0 0 0 0 0 0 0 0 0 0
0 0 5 0 0 0 0 0 0 0 0 0 0 0 0 0 21 100 100 6 64 40 100 94 100 100 100 98 94 99 100 95 54 21 6 6 7 0 3 0 0 0 0 0 0 1 3 2 0
0 38 0 0 0 0 0 2 0 0 0 0 0 0 0 0 96 94 100 97 36 87 98 100 100 100 99 74 96 97 14 100 100 68 28 100 97 87 92 5 0 0 2 3 5 20 5 2 0
0 1 0 0 0 4 5 0 0 0 0 0 0 0 0 0 77 100 100 80 97 96 100 100 100 97 100 89 63 52 5 100 100 99 52 99 30 93 19 5 4 5 43 100 100 8 2 5 0
0 0 0 0 0 0 0 4 0 0 0 0 0 0 0 0 2 100 100 100 100 100 100 100 99 73 77 98 39 36 18 38 100 54 82 100 67 15 35 8 5 5 90 100 61 3 2 4 5
0 0 0 0 0 0 0 0 0 0 0 0 0 0 0 0 0 19 100 100 100 100 100 94 100 36 97 38 23 6 8 97 79 51 100 100 100 100 50 58 36 59 100 71 5 4 5 5 5
0 0 0 0 0 0 0 0 0 0 0 0 0 0 0 0 9 1 97 100 100 100 100 100 100 74 7 5 9 71 5 66 97 100 63 86 100 94 100 97 76 100 100 83 75 35 22 5 5
0 83 0 0 0 0 0 0 0 0 0 0 0 0 0 0 0 0 6 100 100 100 100 93 100 100 78 66 13 49 79 63 54 77 100 100 100 100 100 100 100 100 100 100 100 68 5 5 5
0 0 1 0 0 0 2 1 0 0 0 0 0 0 0 0 0 0 27 100 100 100 100 100 100 100 88 46 9 49 85 64 100 95 54 90 100 100 100 100 100 100 74 19 5 14 6 5 5
0 4 4 0 0 0 0 0 0 0 0 0 0 0 0 0 0 0 24 100 100 100 100 100 100 100 99 58 65 99 68 100 100 44 54 100 100 100 100 100 100 90 77 7 5 5 76 5 3
1 5 5 4 0 0 0 0 0 0 0 0 0 0 0 0 0 0 34 100 100 100 100 100 100 100 100 98 90 100 100 100 100 95 100 100 100 100 98 90 100 100 96 98 61 5 5 8 9
0 1 14 0 5 0 0 0 0 0 0 0 0 0 0 0 0 0 97 100 100 100 100 100 100 100 100 100 100 100 100 100 100 100 100 100 100 100 100 89 100 100 100 100 50 5 5 62 22
4 7 7 20 0 5 2 0 0 0 0 0 0 0 0 0 0 0 3 100 100 100 100 100 100 100 100 100 100 100 100 100 100 100 80 100 99 97 100 100 100 100 99 100 80 47 68 100 80
4 4 5 16 6 5 4 0 0 0 0 0 0 0 0 0 0 0 84 42 100 100 100 100 100 100 100 100 100 100 100 100 100 51 100 100 99 75 70 85 77 96 100 97 94 88 94 100 100
5 5 5 34 5 74 5 5 5 0 0 0 0 0 0 0 0 0 19 31 100 100 100 100 100 100 100 100 100 100 100 100 100 100 95 30 87 86 79 71 79 94 100 100 99 56 100 100 100
5 5 5 80 63 10 5 10 5 5 0 0 0 0 0 0 0 0 0 3 100 100 100 100 100 100 100 100 100 100 100 100 100 100 99 98 68 93 100 89 66 69 92 100 100 100 100 100 100
5 5 3 30 100 90 3 5 5 6 28 1 0 0 0 0 0 0 0 13 100 100 100 100 100 100 100 100 100 100 100 100 100 100 100 91 57 72 100 66 68 78 95 100 100 100 100 100 100
34 2 4 16 98 99 5 8 5 5 5 6 2 0 0 0 0 0 13 67 38 100 100 100 100 100 100 100 100 100 100 100 100 100 100 100 99 100 100 100 100 100 100 100 100 100 97 100 100
5 3 2 4 32 100 100 89 5 5 5 5 38 3 0 0 0 0 0 55 67 100 100 100 100 100 100 100 100 100 100 98 100 100 100 100 100 100 100 100 100 100 100 100 100 100 100 100 78
5 5 2 5 10 100 100 100 100 14 12 5 22 8 4 0 0 0 2 47 98 100 100 100 100 100 100 100 100 100 100 100 100 100 100 100 100 100 100 100 100 100 100 100 100 100 96 96 87
5 5 0 3 12 100 100 100 76 93 100 82 58 17 6 4 0 0 31 93 93 100 100 100 100 100 100 100 100 100 100 100 100 100 100 100 100 100 100 100 100 100 100 100 100 100 100 100 98
14 5 4 0 5 8 84 100 16 67 11 98 97 10 41 5 0 0 52 100 100 100 100 100 100 100 100 100 100 100 100 100 100 100 100 100 100 100 100 100 100 100 100 100 100 100 100 100 100
47 5 5 5 5 4 4 100 86 6 63 6 8 93 80 56 30 0 3 99 100 100 100 100 100 100 100 100 100 100 100 100 100 100 100 100 100 100 100 100 100 100 100 100 100 100 100 100 100